Regional Weather Roundup
Issued by NWS Charleston, WV

Home | Current Version | Previous Version | Graphics & Text | Print | Product List | Glossary On
Versions: 1 2 3 4 5 6 7 8 9 10 11 12 13 14 15 16 17 18 19 20 21 22 23 24 25 26 27 28 29 30 31 32 33 34 35 36 37 38 39 40 41 42 43 44 45 46 47 48 49 50
000
ASUS41 KRLX 191410
RWRRLX
West Virginia Regional Weather Roundup
National Weather Service Charleston WV
1000 AM EDT FRI SEP 19 2014

Note: "fair" indicates few or no clouds below 12,000 feet with no
significant weather and/or obstructions to visibility.

WVZ003-191500-
Northern Panhandle of West Virginia

CITY           SKY/WX    TMP DP  RH WIND       PRES   REMARKS
WHEELING       SUNNY     57  50  77 NE8       30.22S
$$

WVZ009-191500-
Northwest West Virginia

CITY           SKY/WX    TMP DP  RH WIND       PRES   REMARKS
PARKERSBURG    SUNNY     58  51  78 E5        30.22S
$$

WVZ006-191500-
Western West Virginia

CITY           SKY/WX    TMP DP  RH WIND       PRES   REMARKS
HUNTINGTON     SUNNY     59  51  75 NE6       30.16S
$$

WVZ015-191500-
West Central West Virginia

CITY           SKY/WX    TMP DP  RH WIND       PRES   REMARKS
CHARLESTON     SUNNY     59  54  83 N5        30.16S
$$

WVZ031-191500-
North Central West Virginia

CITY           SKY/WX    TMP DP  RH WIND       PRES   REMARKS
CLARKSBURG     SUNNY     58  52  80 NE5       30.20R
MORGANTOWN     SUNNY     62  49  62 E5        30.22S
$$

WVZ035-042-045-191500-
South Central West Virginia

CITY           SKY/WX    TMP DP  RH WIND       PRES   REMARKS
BECKLEY        MOSUNNY   63  56  78 SE8G17    30.20R
BLUEFIELD      CLOUDY    63  57  81 VRB6      30.22R
LEWISBURG      CLOUDY    61  52  73 N3        30.23R
$$

WVZ047-191500-
Northern Mountains of West Virginia

CITY           SKY/WX    TMP DP  RH WIND       PRES   REMARKS
ELKINS         MOSUNNY   54  53  97 CALM      30.23S FOG
$$

WVZ052-191500-
Eastern Panhandle of West Virginia

CITY           SKY/WX    TMP DP  RH WIND       PRES   REMARKS
MARTINSBURG    MOSUNNY   61  50  67 NE3       30.28R
PETERSBURG     CLOUDY    59  49  69 CALM      30.28S
$$



USA.gov is the U.S. government's official web portal to all federal, state and local government web resources and services.